Total_Precipitation_Accumulation
0.56 0.55 0.56 0.52 0.50 0.52 0.58 0.74 0.96 0.80 0.39 0.27 0.32 0.32 0.34 0.38 0.43 0.46 0.46 0.55 0.63 0.68 0.74 0.80 0.89 0.99 1.14 1.44 2.00 2.69 3.24 3.64 3.62 3.34 3.08 3.04 3.30 3.67
0.68 0.67 0.65 0.63 0.63 0.62 0.63 0.67 0.83 1.01 0.74 0.32 0.33 0.38 0.43 0.45 0.49 0.48 0.48 0.57 0.63 0.72 0.80 0.83 0.91 1.00 1.11 1.25 1.48 1.97 2.61 3.10 3.47 3.64 3.59 3.49 3.53 3.76
0.75 0.77 0.77 0.76 0.78 0.77 0.78 0.78 0.82 0.99 1.00 0.46 0.31 0.37 0.50 0.55 0.54 0.51 0.50 0.54 0.56 0.65 0.76 0.82 0.91 1.01 1.07 1.17 1.30 1.55 2.05 2.58 3.03 3.50 3.82 3.84 3.72 3.69
0.77 0.82 0.84 0.84 0.87 0.88 0.92 0.91 0.88 0.91 1.02 0.74 0.42 0.41 0.49 0.56 0.62 0.61 0.54 0.54 0.55 0.59 0.71 0.82 0.88 0.94 1.00 1.07 1.18 1.37 1.65 2.13 2.52 2.85 3.30 3.54 3.56 3.69
0.71 0.78 0.83 0.91 0.96 0.93 0.94 0.94 0.89 0.83 0.86 0.85 0.59 0.46 0.50 0.55 0.62 0.65 0.64 0.63 0.61 0.62 0.66 0.75 0.85 0.90 0.97 1.03 1.10 1.19 1.31 1.56 1.97 2.45 2.92 3.29 3.35 3.35
0.69 0.73 0.80 0.92 1.01 1.09 1.15 1.06 0.97 1.01 1.01 1.01 0.82 0.64 0.59 0.61 0.75 0.80 0.77 0.73 0.70 0.64 0.66 0.68 0.79 0.89 0.90 0.91 0.94 1.01 1.12 1.36 1.73 2.18 2.54 2.93 3.16 3.14
0.73 0.74 0.78 0.94 1.15 1.35 1.48 1.42 1.37 1.40 1.34 1.30 1.14 0.92 0.78 0.79 0.87 0.85 0.89 0.80 0.79 0.76 0.73 0.64 0.65 0.66 0.71 0.80 0.87 0.91 1.00 1.14 1.34 1.67 2.10 2.48 2.85 3.10
0.81 0.74 0.72 0.81 0.93 1.11 1.33 1.40 1.49 1.60 1.64 1.58 1.45 1.25 0.96 0.86 0.91 1.07 1.19 1.19 1.06 0.78 0.76 0.72 0.71 0.76 0.72 0.71 0.81 0.85 0.89 1.00 1.17 1.39 1.66 1.98 2.33 2.76
0.73 0.68 0.68 0.67 0.73 0.71 0.84 0.94 1.03 1.21 1.44 1.60 1.68 1.36 1.09 0.98 1.15 1.37 1.42 1.39 1.16 0.95 1.01 1.05 0.87 0.85 0.80 0.84 0.93 0.87 0.91 1.01 1.10 1.22 1.42 1.68 1.94 2.28
0.66 0.68 0.69 0.66 0.66 0.74 0.82 0.85 0.79 0.82 1.03 1.28 1.43 1.29 1.19 1.20 1.39 1.66 1.81 1.86 1.53 1.19 1.19 1.38 1.08 0.93 0.86 0.84 0.95 0.93 0.92 0.99 1.07 1.18 1.29 1.44 1.65 1.94
0.66 0.78 0.83 0.74 0.78 0.95 1.07 1.04 0.85 0.73 0.80 1.10 1.37 1.41 1.45 1.64 1.85 2.21 2.48 2.55 2.25 1.63 1.37 1.50 1.31 1.10 0.99 0.92 0.96 1.05 1.02 1.01 1.04 1.14 1.27 1.37 1.50 1.71
0.68 0.80 1.06 1.03 1.00 1.07 1.13 1.16 1.11 0.84 0.75 0.80 0.90 1.01 1.05 1.13 1.49 1.85 2.11 2.35 2.31 2.04 1.56 1.51 1.50 1.44 1.48 1.13 0.94 0.89 0.94 1.07 1.12 1.15 1.24 1.35 1.48 1.51
0.80 0.86 0.99 1.08 1.07 1.08 1.14 1.12 1.16 1.10 1.05 1.03 0.98 0.92 0.95 1.06 1.22 1.49 1.74 1.99 2.20 2.06 1.63 1.70 1.83 1.72 1.66 1.37 1.06 0.95 0.87 0.86 0.92 1.06 1.20 1.33 1.47 1.55
0.88 0.81 0.89 1.01 1.06 1.08 1.05 1.06 1.14 1.18 1.12 1.09 1.02 0.95 0.93 0.98 1.05 1.20 1.45 1.61 1.75 1.80 1.64 1.77 2.05 1.88 1.78 1.50 1.19 1.10 1.02 0.94 0.87 0.91 1.00 1.28 1.45 1.55
0.95 1.09 1.05 1.01 0.97 0.92 0.91 0.97 0.98 0.95 1.00 0.98 0.87 0.78 0.74 0.79 0.90 1.05 1.23 1.41 1.54 1.61 1.64 1.65 1.78 1.83 1.91 1.75 1.28 1.11 1.14 1.14 1.03 0.96 0.99 1.07 1.19 1.34
0.94 1.03 1.03 0.92 0.82 0.78 0.79 0.80 0.80 0.87 0.96 0.96 0.84 0.73 0.69 0.75 0.86 0.97 1.14 1.29 1.52 1.56 1.51 1.54 1.64 1.89 2.06 1.75 1.49 1.26 1.11 1.23 1.20 1.09 1.04 1.05 1.08 1.12
1.14 1.13 1.03 0.90 0.81 0.72 0.68 0.65 0.66 0.77 0.89 0.88 0.88 0.86 0.82 0.83 0.86 0.90 1.08 1.24 1.41 1.40 1.41 1.52 1.66 1.84 2.01 2.00 1.89 1.50 1.23 1.19 1.22 1.22 1.17 1.19 1.19 1.15
1.14 1.08 0.91 0.80 0.74 0.69 0.68 0.68 0.65 0.68 0.71 0.78 0.84 0.86 0.88 0.90 0.90 0.90 1.06 1.21 1.28 1.24 1.28 1.41 1.70 2.08 2.33 2.34 2.02 1.67 1.40 1.30 1.36 1.42 1.31 1.25 1.22 1.12
0.94 0.83 0.75 0.72 0.69 0.67 0.66 0.67 0.64 0.61 0.66 0.76 0.83 0.86 0.89 0.93 0.94 0.95 1.00 1.09 1.15 1.16 1.22 1.34 1.61 2.03 2.22 2.12 2.02 1.74 1.50 1.35 1.44 1.62 1.53 1.25 1.12 1.03
0.73 0.73 0.70 0.68 0.66 0.66 0.66 0.67 0.65 0.64 0.68 0.73 0.76 0.78 0.83 0.91 0.93 0.88 0.90 1.01 1.09 1.15 1.23 1.34 1.54 1.79 1.96 1.74 1.69 1.77 1.65 1.50 1.50 1.65 1.60 1.35 1.21 1.25
0.64 0.65 0.63 0.67 0.69 0.67 0.66 0.65 0.67 0.68 0.66 0.68 0.69 0.70 0.74 0.84 0.86 0.79 0.81 0.92 1.12 1.22 1.24 1.25 1.38 1.61 1.85 1.93 1.91 1.81 1.79 1.74 1.59 1.60 1.57 1.53 1.48 1.47
0.62 0.65 0.62 0.63 0.68 0.69 0.69 0.67 0.68 0.67 0.65 0.65 0.66 0.67 0.70 0.79 0.82 0.77 0.82 0.93 1.02 1.08 1.12 1.18 1.31 1.65 2.05 2.16 1.97 1.76 1.77 1.84 1.92 1.83 1.71 1.56 1.56 1.55
0.69 0.67 0.62 0.58 0.61 0.65 0.68 0.67 0.67 0.64 0.61 0.66 0.68 0.68 0.72 0.79 0.78 0.82 0.85 0.90 0.98 1.04 1.10 1.25 1.42 1.67 1.91 1.90 1.87 1.77 1.66 1.66 1.76 1.88 2.06 1.80 1.38 1.17